Wetterdaten: Sonntag, 25.10.2015
Datum Zeit Temp. A. Feuchte A. Luftdruck Regen Wind Richtung Richtung Sonnenschein ET UV Solar Taupunkt Windchill Windben Empfang
25.10.2015 00:00 4,6 C 98 % 1020,5 hPa 0,0 l/m 0,1 km/h (0 Bft) O-SO 121 0 min 0,000 mm 0,0 UV-I 0 W/m 4,3 C 4,6 C 1,6 km/h (1 Bft) 99,11 %
25.10.2015 00:05 4,7 C 98 % 1020,6 hPa 0,0 l/m 0,0 km/h (0 Bft) O-SO 121 0 min 0,000 mm 0,0 UV-I 0 W/m 4,4 C 4,7 C 0,0 km/h (0 Bft) 100,00 %
25.10.2015 00:10 4,5 C 98 % 1020,6 hPa 0,0 l/m 0,1 km/h (0 Bft) O-SO 121 0 min 0,000 mm 0,0 UV-I 0 W/m 4,2 C 4,5 C 1,6 km/h (1 Bft) 99,11 %
25.10.2015 00:15 4,4 C 98 % 1020,6 hPa 0,0 l/m 0,9 km/h (0 Bft) O-SO 121 0 min 0,000 mm 0,0 UV-I 0 W/m 4,1 C 4,4 C 1,6 km/h (1 Bft) 99,17 %
25.10.2015 00:20 4,3 C 98 % 1020,6 hPa 0,0 l/m 0,4 km/h (0 Bft) O-SO 121 0 min 0,000 mm 0,0 UV-I 0 W/m 4,0 C 4,3 C 1,6 km/h (1 Bft) 99,19 %
25.10.2015 00:25 4,3 C 97 % 1020,6 hPa 0,0 l/m 0,1 km/h (0 Bft) O-SO 121 0 min 0,000 mm 0,0 UV-I 0 W/m 3,9 C 4,3 C 1,6 km/h (1 Bft) 99,11 %
25.10.2015 00:30 4,4 C 98 % 1020,6 hPa 0,0 l/m 0,1 km/h (0 Bft) O-SO 121 0 min 0,000 mm 0,0 UV-I 0 W/m 4,1 C 4,4 C 1,6 km/h (1 Bft) 100,00 %
25.10.2015 00:35 4,6 C 98 % 1020,6 hPa 0,0 l/m 0,1 km/h (0 Bft) O-SO 121 0 min 0,000 mm 0,0 UV-I 0 W/m 4,3 C 4,6 C 1,6 km/h (1 Bft) 98,15 %
25.10.2015 00:40 4,7 C 98 % 1020,6 hPa 0,0 l/m 0,5 km/h (0 Bft) O-SO 121 0 min 0,000 mm 0,0 UV-I 0 W/m 4,4 C 4,7 C 1,6 km/h (1 Bft) 100,00 %
25.10.2015 00:45 4,8 C 98 % 1020,6 hPa 0,0 l/m 0,8 km/h (0 Bft) S-SO 157 0 min 0,000 mm 0,0 UV-I 0 W/m 4,5 C 4,8 C 3,2 km/h (1 Bft) 98,26 %
25.10.2015 00:50 4,9 C 98 % 1020,6 hPa 0,0 l/m 0,1 km/h (0 Bft) S-SO 157 0 min 0,000 mm 0,0 UV-I 0 W/m 4,6 C 4,9 C 1,6 km/h (1 Bft) 99,19 %
25.10.2015 00:55 5,1 C 98 % 1020,7 hPa 0,0 l/m 0,7 km/h (0 Bft) S-SO 157 0 min 0,000 mm 0,0 UV-I 0 W/m 4,8 C 5,1 C 1,6 km/h (1 Bft) 100,00 %
25.10.2015 01:00 4,9 C 98 % 1020,7 hPa 0,0 l/m 1,3 km/h (1 Bft) S-SO 157 0 min 0,000 mm 0,0 UV-I 0 W/m 4,6 C 4,9 C 3,2 km/h (1 Bft) 99,12 %
25.10.2015 01:05 4,8 C 98 % 1020,6 hPa 0,0 l/m 1,0 km/h (0 Bft) S-SW 194 0 min 0,000 mm 0,0 UV-I 0 W/m 4,5 C 4,8 C 3,2 km/h (1 Bft) 99,08 %
25.10.2015 01:10 4,9 C 98 % 1020,6 hPa 0,0 l/m 0,6 km/h (0 Bft) S 190 0 min 0,000 mm 0,0 UV-I 0 W/m 4,6 C 4,9 C 1,6 km/h (1 Bft) 99,21 %
25.10.2015 01:15 4,8 C 98 % 1020,7 hPa 0,0 l/m 0,5 km/h (0 Bft) S 190 0 min 0,000 mm 0,0 UV-I 0 W/m 4,5 C 4,8 C 1,6 km/h (1 Bft) 100,00 %
25.10.2015 01:20 4,6 C 97 % 1020,7 hPa 0,0 l/m 1,5 km/h (1 Bft) S-SW 194 0 min 0,000 mm 0,0 UV-I 0 W/m 4,2 C 4,6 C 3,2 km/h (1 Bft) 100,00 %
25.10.2015 01:25 4,7 C 97 % 1020,8 hPa 0,0 l/m 1,0 km/h (0 Bft) S 190 0 min 0,000 mm 0,0 UV-I 0 W/m 4,3 C 4,7 C 3,2 km/h (1 Bft) 100,00 %
25.10.2015 01:30 4,6 C 97 % 1020,8 hPa 0,0 l/m 1,0 km/h (0 Bft) S-SW 202 0 min 0,000 mm 0,0 UV-I 0 W/m 4,2 C 4,6 C 3,2 km/h (1 Bft) 100,00 %
25.10.2015 01:35 4,6 C 97 % 1020,8 hPa 0,0 l/m 1,0 km/h (0 Bft) S-SW 202 0 min 0,000 mm 0,0 UV-I 0 W/m 4,2 C 4,6 C 3,2 km/h (1 Bft) 99,15 %
25.10.2015 01:40 4,4 C 97 % 1020,9 hPa 0,0 l/m 0,2 km/h (0 Bft) S-SW 202 0 min 0,000 mm 0,0 UV-I 0 W/m 4,0 C 4,4 C 1,6 km/h (1 Bft) 100,00 %
25.10.2015 01:45 4,3 C 97 % 1020,9 hPa 0,0 l/m 0,0 km/h (0 Bft) S-SW 202 0 min 0,000 mm 0,0 UV-I 0 W/m 3,9 C 4,3 C 0,0 km/h (0 Bft) 98,29 %
25.10.2015 01:50 4,4 C 98 % 1020,9 hPa 0,0 l/m 0,1 km/h (0 Bft) S-SW 202 0 min 0,000 mm 0,0 UV-I 0 W/m 4,1 C 4,4 C 1,6 km/h (1 Bft) 99,19 %
25.10.2015 01:55 4,6 C 98 % 1020,9 hPa 0,0 l/m 0,1 km/h (0 Bft) S-SW 202 0 min 0,000 mm 0,0 UV-I 0 W/m 4,3 C 4,6 C 1,6 km/h (1 Bft) 97,22 %
25.10.2015 02:00 4,6 C 98 % 1021,0 hPa 0,0 l/m 0,2 km/h (0 Bft) S-SW 202 0 min 0,000 mm 0,0 UV-I 0 W/m 4,3 C 4,6 C 1,6 km/h (1 Bft) 100,00 %
25.10.2015 02:05 4,4 C 98 % 1021,0 hPa 0,0 l/m 0,4 km/h (0 Bft) S-SW 202 0 min 0,000 mm 0,0 UV-I 0 W/m 4,1 C 4,4 C 1,6 km/h (1 Bft) 100,00 %
25.10.2015 02:10 4,3 C 97 % 1021,0 hPa 0,0 l/m 0,8 km/h (0 Bft) S-SW 202 0 min 0,000 mm 0,0 UV-I 0 W/m 3,9 C 4,3 C 3,2 km/h (1 Bft) 99,19 %
25.10.2015 02:15 4,1 C 97 % 1020,9 hPa 0,0 l/m 0,3 km/h (0 Bft) S-SO 164 0 min 0,000 mm 0,0 UV-I 0 W/m 3,7 C 4,1 C 3,2 km/h (1 Bft) 99,19 %
25.10.2015 02:20 4,1 C 98 % 1021,1 hPa 0,0 l/m 0,1 km/h (0 Bft) S-SO 160 0 min 0,000 mm 0,0 UV-I 0 W/m 3,8 C 4,1 C 1,6 km/h (1 Bft) 97,30 %
25.10.2015 02:25 4,3 C 98 % 1021,1 hPa 0,0 l/m 0,2 km/h (0 Bft) S-SO 160 0 min 0,000 mm 0,0 UV-I 0 W/m 4,0 C 4,3 C 1,6 km/h (1 Bft) 100,00 %
25.10.2015 02:30 4,2 C 98 % 1021,1 hPa 0,0 l/m 0,7 km/h (0 Bft) S-SO 161 0 min 0,000 mm 0,0 UV-I 0 W/m 3,9 C 4,2 C 3,2 km/h (1 Bft) 100,00 %
25.10.2015 02:35 4,3 C 98 % 1021,1 hPa 0,0 l/m 0,3 km/h (0 Bft) S-SO 161 0 min 0,000 mm 0,0 UV-I 0 W/m 4,0 C 4,3 C 1,6 km/h (1 Bft) 100,00 %
25.10.2015 02:40 4,2 C 98 % 1021,3 hPa 0,0 l/m 0,5 km/h (0 Bft) S-SW 209 0 min 0,000 mm 0,0 UV-I 0 W/m 3,9 C 4,2 C 1,6 km/h (1 Bft) 100,00 %
25.10.2015 02:45 4,0 C 98 % 1021,3 hPa 0,0 l/m 0,6 km/h (0 Bft) S-SW 209 0 min 0,000 mm 0,0 UV-I 0 W/m 3,7 C 4,0 C 1,6 km/h (1 Bft) 100,00 %
25.10.2015 02:50 4,1 C 98 % 1021,3 hPa 0,0 l/m 1,8 km/h (1 Bft) O-SO 118 0 min 0,000 mm 0,0 UV-I 0 W/m 3,8 C 4,1 C 4,8 km/h (1 Bft) 98,55 %
25.10.2015 02:55 4,1 C 98 % 1021,3 hPa 0,0 l/m 1,4 km/h (1 Bft) S-SO 147 0 min 0,000 mm 0,0 UV-I 0 W/m 3,8 C 4,1 C 3,2 km/h (1 Bft) 99,11 %
25.10.2015 02:00 4,3 C 98 % 1021,3 hPa 0,0 l/m 1,0 km/h (0 Bft) S-SO 149 0 min 0,000 mm 0,0 UV-I 0 W/m 4,0 C 4,3 C 3,2 km/h (1 Bft) 100,00 %
25.10.2015 02:05 4,4 C 98 % 1021,3 hPa 0,0 l/m 0,5 km/h (0 Bft) S-SO 149 0 min 0,000 mm 0,0 UV-I 0 W/m 4,1 C 4,4 C 1,6 km/h (1 Bft) 100,00 %
25.10.2015 02:10 4,2 C 98 % 1021,4 hPa 0,0 l/m 1,2 km/h (1 Bft) S-SO 159 0 min 0,000 mm 0,0 UV-I 0 W/m 3,9 C 4,2 C 3,2 km/h (1 Bft) 100,00 %
25.10.2015 02:15 4,4 C 98 % 1021,4 hPa 0,0 l/m 2,2 km/h (1 Bft) S 190 0 min 0,000 mm 0,0 UV-I 0 W/m 4,1 C 4,4 C 4,8 km/h (1 Bft) 97,50 %
25.10.2015 02:20 4,6 C 98 % 1021,4 hPa 0,0 l/m 0,6 km/h (0 Bft) S 190 0 min 0,000 mm 0,0 UV-I 0 W/m 4,3 C 4,6 C 3,2 km/h (1 Bft) 100,00 %
25.10.2015 02:25 4,3 C 98 % 1021,5 hPa 0,0 l/m 0,4 km/h (0 Bft) S 190 0 min 0,000 mm 0,0 UV-I 0 W/m 4,0 C 4,3 C 1,6 km/h (1 Bft) 99,08 %
25.10.2015 02:30 3,7 C 98 % 1021,6 hPa 0,0 l/m 1,3 km/h (1 Bft) SW 214 0 min 0,000 mm 0,0 UV-I 0 W/m 3,4 C 3,7 C 3,2 km/h (1 Bft) 99,19 %
25.10.2015 02:35 3,6 C 97 % 1021,6 hPa 0,0 l/m 0,3 km/h (0 Bft) SW 214 0 min 0,000 mm 0,0 UV-I 0 W/m 3,2 C 3,6 C 1,6 km/h (1 Bft) 100,00 %
25.10.2015 02:40 4,1 C 98 % 1021,6 hPa 0,0 l/m 1,2 km/h (1 Bft) S-SW 213 0 min 0,000 mm 0,0 UV-I 0 W/m 3,8 C 4,1 C 3,2 km/h (1 Bft) 99,21 %
25.10.2015 02:45 4,1 C 98 % 1021,7 hPa 0,0 l/m 1,1 km/h (1 Bft) S-SW 204 0 min 0,000 mm 0,0 UV-I 0 W/m 3,8 C 4,1 C 3,2 km/h (1 Bft) 98,23 %
25.10.2015 02:50 4,2 C 98 % 1021,7 hPa 0,0 l/m 1,1 km/h (1 Bft) S-SW 199 0 min 0,000 mm 0,0 UV-I 0 W/m 3,9 C 4,2 C 3,2 km/h (1 Bft) 100,00 %
25.10.2015 02:55 4,3 C 98 % 1021,7 hPa 0,0 l/m 1,1 km/h (1 Bft) S-SW 199 0 min 0,000 mm 0,0 UV-I 0 W/m 4,0 C 4,3 C 3,2 km/h (1 Bft) 99,08 %
25.10.2015 03:00 4,3 C 98 % 1021,7 hPa 0,0 l/m 0,5 km/h (0 Bft) S-SW 199 0 min 0,000 mm 0,0 UV-I 0 W/m 4,0 C 4,3 C 1,6 km/h (1 Bft) 100,00 %
25.10.2015 03:05 4,1 C 98 % 1021,7 hPa 0,0 l/m 0,6 km/h (0 Bft) S-SW 199 0 min 0,000 mm 0,0 UV-I 0 W/m 3,8 C 4,1 C 1,6 km/h (1 Bft) 100,00 %
25.10.2015 03:10 3,8 C 98 % 1021,7 hPa 0,0 l/m 0,0 km/h (0 Bft) S-SW 199 0 min 0,000 mm 0,0 UV-I 0 W/m 3,5 C 3,8 C 0,0 km/h (0 Bft) 100,00 %
25.10.2015 03:15 4,0 C 98 % 1021,8 hPa 0,0 l/m 0,1 km/h (0 Bft) S-SW 199 0 min 0,000 mm 0,0 UV-I 0 W/m 3,7 C 4,0 C 1,6 km/h (1 Bft) 98,35 %
25.10.2015 03:20 4,1 C 98 % 1021,8 hPa 0,0 l/m 0,0 km/h (0 Bft) S-SW 199 0 min 0,000 mm 0,0 UV-I 0 W/m 3,8 C 4,1 C 0,0 km/h (0 Bft) 100,00 %
25.10.2015 03:25 4,2 C 98 % 1021,8 hPa 0,0 l/m 0,9 km/h (0 Bft) S-SW 197 0 min 0,000 mm 0,0 UV-I 0 W/m 3,9 C 4,2 C 3,2 km/h (1 Bft) 100,00 %
25.10.2015 03:30 4,1 C 98 % 1021,8 hPa 0,0 l/m 0,6 km/h (0 Bft) S-SW 197 0 min 0,000 mm 0,0 UV-I 0 W/m 3,8 C 4,1 C 1,6 km/h (1 Bft) 100,00 %
25.10.2015 03:35 4,1 C 98 % 1021,8 hPa 0,0 l/m 0,3 km/h (0 Bft) S-SW 197 0 min 0,000 mm 0,0 UV-I 0 W/m 3,8 C 4,1 C 1,6 km/h (1 Bft) 99,11 %
25.10.2015 03:40 3,9 C 98 % 1021,8 hPa 0,0 l/m 1,0 km/h (0 Bft) S-SW 213 0 min 0,000 mm 0,0 UV-I 0 W/m 3,6 C 3,9 C 3,2 km/h (1 Bft) 100,00 %
25.10.2015 03:45 3,8 C 98 % 1021,8 hPa 0,0 l/m 0,2 km/h (0 Bft) S-SW 213 0 min 0,000 mm 0,0 UV-I 0 W/m 3,5 C 3,8 C 1,6 km/h (1 Bft) 99,11 %
25.10.2015 03:50 3,7 C 98 % 1021,7 hPa 0,0 l/m 0,6 km/h (0 Bft) S-SW 193 0 min 0,000 mm 0,0 UV-I 0 W/m 3,4 C 3,7 C 1,6 km/h (1 Bft) 100,00 %
25.10.2015 03:55 3,7 C 98 % 1021,7 hPa 0,0 l/m 0,3 km/h (0 Bft) S-SW 193 0 min 0,000 mm 0,0 UV-I 0 W/m 3,4 C 3,7 C 1,6 km/h (1 Bft) 100,00 %
25.10.2015 04:00 3,8 C 98 % 1021,7 hPa 0,0 l/m 0,0 km/h (0 Bft) S-SW 193 0 min 0,000 mm 0,0 UV-I 0 W/m 3,5 C 3,8 C 1,6 km/h (1 Bft) 97,52 %
25.10.2015 04:05 4,1 C 98 % 1021,7 hPa 0,0 l/m 0,1 km/h (0 Bft) S-SW 193 0 min 0,000 mm 0,0 UV-I 0 W/m 3,8 C 4,1 C 1,6 km/h (1 Bft) 100,00 %
25.10.2015 04:10 4,2 C 98 % 1021,6 hPa 0,0 l/m 0,0 km/h (0 Bft) S-SW 193 0 min 0,000 mm 0,0 UV-I 0 W/m 3,9 C 4,2 C 1,6 km/h (1 Bft) 98,35 %
25.10.2015 04:15 4,2 C 98 % 1021,6 hPa 0,0 l/m 0,0 km/h (0 Bft) S-SW 193 0 min 0,000 mm 0,0 UV-I 0 W/m 3,9 C 4,2 C 0,0 km/h (0 Bft) 100,00 %
25.10.2015 04:20 3,9 C 98 % 1021,6 hPa 0,0 l/m 0,0 km/h (0 Bft) S-SW 193 0 min 0,000 mm 0,0 UV-I 0 W/m 3,6 C 3,9 C 0,0 km/h (0 Bft) 99,17 %
25.10.2015 04:25 3,8 C 97 % 1021,6 hPa 0,0 l/m 0,0 km/h (0 Bft) S-SW 193 0 min 0,000 mm 0,0 UV-I 0 W/m 3,4 C 3,8 C 0,0 km/h (0 Bft) 99,17 %
25.10.2015 04:30 3,4 C 97 % 1021,7 hPa 0,0 l/m 0,0 km/h (0 Bft) S-SW 193 0 min 0,000 mm 0,0 UV-I 0 W/m 3,0 C 3,4 C 0,0 km/h (0 Bft) 100,00 %
25.10.2015 04:35 3,3 C 97 % 1021,7 hPa 0,0 l/m 0,1 km/h (0 Bft) S-SW 193 0 min 0,000 mm 0,0 UV-I 0 W/m 2,9 C 3,3 C 1,6 km/h (1 Bft) 100,00 %
25.10.2015 04:40 3,4 C 98 % 1021,7 hPa 0,0 l/m 0,4 km/h (0 Bft) S-SW 193 0 min 0,000 mm 0,0 UV-I 0 W/m 3,1 C 3,4 C 1,6 km/h (1 Bft) 99,15 %
25.10.2015 04:45 3,5 C 98 % 1021,7 hPa 0,0 l/m 0,1 km/h (0 Bft) S-SW 193 0 min 0,000 mm 0,0 UV-I 0 W/m 3,2 C 3,5 C 1,6 km/h (1 Bft) 100,00 %
25.10.2015 04:50 3,5 C 98 % 1021,8 hPa 0,0 l/m 0,0 km/h (0 Bft) S-SW 193 0 min 0,000 mm 0,0 UV-I 0 W/m 3,2 C 3,5 C 0,0 km/h (0 Bft) 100,00 %
25.10.2015 04:55 3,6 C 98 % 1021,7 hPa 0,0 l/m 0,0 km/h (0 Bft) S-SW 193 0 min 0,000 mm 0,0 UV-I 0 W/m 3,3 C 3,6 C 1,6 km/h (1 Bft) 100,00 %
25.10.2015 05:00 3,6 C 98 % 1021,8 hPa 0,0 l/m 1,1 km/h (1 Bft) NW 307 0 min 0,000 mm 0,0 UV-I 0 W/m 3,3 C 3,6 C 3,2 km/h (1 Bft) 100,00 %
25.10.2015 05:05 3,1 C 97 % 1021,9 hPa 0,0 l/m 2,0 km/h (1 Bft) N 355 0 min 0,000 mm 0,0 UV-I 0 W/m 2,7 C 3,1 C 3,2 km/h (1 Bft) 99,21 %
25.10.2015 05:10 3,0 C 97 % 1021,9 hPa 0,0 l/m 0,0 km/h (0 Bft) N 355 0 min 0,000 mm 0,0 UV-I 0 W/m 2,6 C 3,0 C 1,6 km/h (1 Bft) 99,10 %
25.10.2015 05:15 3,1 C 98 % 1021,9 hPa 0,0 l/m 0,0 km/h (0 Bft) N 355 0 min 0,000 mm 0,0 UV-I 0 W/m 2,8 C 3,1 C 0,0 km/h (0 Bft) 99,17 %
25.10.2015 05:20 3,3 C 98 % 1022,1 hPa 0,0 l/m 0,1 km/h (0 Bft) N 355 0 min 0,000 mm 0,0 UV-I 0 W/m 3,0 C 3,3 C 1,6 km/h (1 Bft) 100,00 %
25.10.2015 05:25 3,2 C 98 % 1022,1 hPa 0,0 l/m 0,2 km/h (0 Bft) N 355 0 min 0,000 mm 0,0 UV-I 0 W/m 2,9 C 3,2 C 1,6 km/h (1 Bft) 100,00 %
25.10.2015 05:30 3,0 C 98 % 1022,1 hPa 0,0 l/m 0,8 km/h (0 Bft) O-NO 77 0 min 0,000 mm 0,0 UV-I 0 W/m 2,7 C 3,0 C 3,2 km/h (1 Bft) 100,00 %
25.10.2015 05:35 2,6 C 97 % 1022,2 hPa 0,0 l/m 1,0 km/h (0 Bft) O 82 0 min 0,000 mm 0,0 UV-I 0 W/m 2,2 C 2,6 C 3,2 km/h (1 Bft) 99,13 %
25.10.2015 05:40 2,5 C 98 % 1022,2 hPa 0,0 l/m 1,5 km/h (1 Bft) O 92 0 min 0,000 mm 0,0 UV-I 0 W/m 2,2 C 2,5 C 3,2 km/h (1 Bft) 100,00 %
25.10.2015 05:45 2,5 C 98 % 1022,2 hPa 0,0 l/m 2,2 km/h (1 Bft) O-SO 103 0 min 0,000 mm 0,0 UV-I 0 W/m 2,2 C 2,5 C 4,8 km/h (1 Bft) 100,00 %
25.10.2015 05:50 2,6 C 98 % 1022,2 hPa 0,0 l/m 0,9 km/h (0 Bft) O-SO 103 0 min 0,000 mm 0,0 UV-I 0 W/m 2,3 C 2,6 C 3,2 km/h (1 Bft) 99,08 %
25.10.2015 05:55 2,4 C 98 % 1022,2 hPa 0,0 l/m 0,5 km/h (0 Bft) O-SO 103 0 min 0,000 mm 0,0 UV-I 0 W/m 2,1 C 2,4 C 1,6 km/h (1 Bft) 100,00 %
25.10.2015 06:00 2,7 C 98 % 1022,3 hPa 0,0 l/m 0,0 km/h (0 Bft) O-SO 103 0 min 0,000 mm 0,0 UV-I 0 W/m 2,4 C 2,7 C 0,0 km/h (0 Bft) 100,00 %
25.10.2015 06:05 2,7 C 98 % 1022,2 hPa 0,0 l/m 0,0 km/h (0 Bft) O-SO 103 0 min 0,000 mm 0,0 UV-I 0 W/m 2,4 C 2,7 C 0,0 km/h (0 Bft) 100,00 %
25.10.2015 06:10 2,5 C 98 % 1022,4 hPa 0,0 l/m 0,0 km/h (0 Bft) O-SO 103 0 min 0,000 mm 0,0 UV-I 0 W/m 2,2 C 2,5 C 0,0 km/h (0 Bft) 98,35 %
25.10.2015 06:15 2,3 C 98 % 1022,4 hPa 0,0 l/m 0,0 km/h (0 Bft) O-SO 103 0 min 0,000 mm 0,0 UV-I 0 W/m 2,0 C 2,3 C 0,0 km/h (0 Bft) 99,13 %
25.10.2015 06:20 2,2 C 98 % 1022,4 hPa 0,0 l/m 0,0 km/h (0 Bft) O-SO 103 0 min 0,000 mm 0,0 UV-I 0 W/m 1,9 C 2,2 C 0,0 km/h (0 Bft) 99,17 %
25.10.2015 06:25 2,3 C 98 % 1022,5 hPa 0,0 l/m 0,2 km/h (0 Bft) O-SO 103 0 min 0,000 mm 0,0 UV-I 0 W/m 2,0 C 2,3 C 1,6 km/h (1 Bft) 100,00 %
25.10.2015 06:30 2,4 C 98 % 1022,5 hPa 0,0 l/m 0,1 km/h (0 Bft) O-SO 103 0 min 0,000 mm 0,0 UV-I 0 W/m 2,1 C 2,4 C 1,6 km/h (1 Bft) 100,00 %
25.10.2015 06:35 2,4 C 98 % 1022,6 hPa 0,0 l/m 0,0 km/h (0 Bft) O-SO 103 0 min 0,000 mm 0,0 UV-I 0 W/m 2,1 C 2,4 C 0,0 km/h (0 Bft) 98,37 %
25.10.2015 06:40 2,4 C 98 % 1022,8 hPa 0,0 l/m 0,0 km/h (0 Bft) O-SO 103 0 min 0,000 mm 0,0 UV-I 0 W/m 2,1 C 2,4 C 0,0 km/h (0 Bft) 100,00 %
25.10.2015 06:45 2,3 C 98 % 1022,8 hPa 0,0 l/m 0,1 km/h (0 Bft) O-SO 103 0 min 0,000 mm 0,0 UV-I 3 W/m 2,0 C 2,3 C 1,6 km/h (1 Bft) 100,00 %
25.10.2015 06:50 2,3 C 98 % 1022,8 hPa 0,0 l/m 0,0 km/h (0 Bft) O-SO 103 0 min 0,000 mm 0,0 UV-I 8 W/m 2,0 C 2,3 C 0,0 km/h (0 Bft) 97,56 %
25.10.2015 06:55 2,3 C 98 % 1022,9 hPa 0,0 l/m 0,3 km/h (0 Bft) O 90 0 min 0,000 mm 0,0 UV-I 11 W/m 2,0 C 2,3 C 1,6 km/h (1 Bft) 100,00 %
25.10.2015 07:00 2,4 C 98 % 1022,9 hPa 0,0 l/m 0,6 km/h (0 Bft) O 90 0 min 0,000 mm 0,0 UV-I 14 W/m 2,1 C 2,4 C 3,2 km/h (1 Bft) 100,00 %
25.10.2015 07:05 2,4 C 98 % 1022,9 hPa 0,0 l/m 0,0 km/h (0 Bft) O 90 0 min 0,000 mm 0,0 UV-I 19 W/m 2,1 C 2,4 C 0,0 km/h (0 Bft) 99,19 %
25.10.2015 07:10 2,4 C 98 % 1022,9 hPa 0,0 l/m 0,0 km/h (0 Bft) O 90 0 min 0,000 mm 0,0 UV-I 23 W/m 2,1 C 2,4 C 0,0 km/h (0 Bft) 99,15 %
25.10.2015 07:15 2,3 C 98 % 1022,9 hPa 0,0 l/m 0,0 km/h (0 Bft) O 90 0 min 0,000 mm 0,0 UV-I 28 W/m 2,0 C 2,3 C 1,6 km/h (1 Bft) 99,12 %
25.10.2015 07:20 2,3 C 98 % 1022,9 hPa 0,0 l/m 0,6 km/h (0 Bft) O 90 0 min 0,000 mm 0,0 UV-I 33 W/m 2,0 C 2,3 C 1,6 km/h (1 Bft) 100,00 %
25.10.2015 07:25 2,3 C 98 % 1023,0 hPa 0,0 l/m 1,3 km/h (1 Bft) O-SO 121 0 min 0,000 mm 0,0 UV-I 39 W/m 2,0 C 2,3 C 3,2 km/h (1 Bft) 99,11 %
25.10.2015 07:30 2,6 C 98 % 1022,9 hPa 0,0 l/m 0,7 km/h (0 Bft) O-SO 122 0 min 0,000 mm 0,0 UV-I 51 W/m 2,3 C 2,6 C 1,6 km/h (1 Bft) 100,00 %
25.10.2015 07:35 2,8 C 98 % 1023,0 hPa 0,0 l/m 0,2 km/h (0 Bft) O-SO 122 0 min 0,000 mm 0,0 UV-I 58 W/m 2,5 C 2,8 C 1,6 km/h (1 Bft) 99,15 %
25.10.2015 07:40 2,9 C 98 % 1022,9 hPa 0,0 l/m 0,3 km/h (0 Bft) O-SO 122 0 min 0,000 mm 0,0 UV-I 66 W/m 2,6 C 2,9 C 1,6 km/h (1 Bft) 99,15 %
25.10.2015 07:45 2,9 C 98 % 1023,1 hPa 0,0 l/m 0,8 km/h (0 Bft) O-SO 122 0 min 0,000 mm 0,0 UV-I 101 W/m 2,6 C 2,9 C 1,6 km/h (1 Bft) 99,13 %
25.10.2015 07:50 3,2 C 98 % 1023,1 hPa 0,0 l/m 0,9 km/h (0 Bft) O-SO 122 5 min 0,000 mm 0,0 UV-I 99 W/m 2,9 C 3,2 C 1,6 km/h (1 Bft) 100,00 %
25.10.2015 07:55 3,4 C 99 % 1023,1 hPa 0,0 l/m 1,2 km/h (1 Bft) S-SO 149 5 min 0,000 mm 0,0 UV-I 136 W/m 3,3 C 3,4 C 3,2 km/h (1 Bft) 100,00 %
25.10.2015 08:00 3,6 C 98 % 1023,3 hPa 0,0 l/m 1,3 km/h (1 Bft) S-SO 152 5 min 0,025 mm 0,0 UV-I 171 W/m 3,3 C 3,6 C 3,2 km/h (1 Bft) 100,00 %
25.10.2015 08:05 3,8 C 98 % 1023,4 hPa 0,0 l/m 0,7 km/h (0 Bft) W 277 5 min 0,000 mm 0,0 UV-I 170 W/m 3,5 C 3,8 C 3,2 km/h (1 Bft) 100,00 %
25.10.2015 08:10 3,9 C 98 % 1023,5 hPa 0,0 l/m 0,8 km/h (0 Bft) W 277 5 min 0,000 mm 0,0 UV-I 188 W/m 3,6 C 3,9 C 3,2 km/h (1 Bft) 100,00 %
25.10.2015 08:15 4,3 C 99 % 1023,6 hPa 0,0 l/m 0,4 km/h (0 Bft) W 279 5 min 0,000 mm 0,0 UV-I 224 W/m 4,2 C 4,3 C 1,6 km/h (1 Bft) 98,39 %
25.10.2015 08:20 4,6 C 98 % 1023,6 hPa 0,0 l/m 0,3 km/h (0 Bft) NW 306 5 min 0,000 mm 0,0 UV-I 217 W/m 4,3 C 4,6 C 1,6 km/h (1 Bft) 100,00 %
25.10.2015 08:25 4,8 C 98 % 1023,5 hPa 0,0 l/m 0,0 km/h (0 Bft) NW 306 5 min 0,000 mm 0,0 UV-I 135 W/m 4,5 C 4,8 C 1,6 km/h (1 Bft) 99,11 %
25.10.2015 08:30 5,1 C 98 % 1023,6 hPa 0,0 l/m 0,3 km/h (0 Bft) NW 313 5 min 0,000 mm 0,0 UV-I 123 W/m 4,8 C 5,1 C 1,6 km/h (1 Bft) 100,00 %
25.10.2015 08:35 5,2 C 98 % 1023,6 hPa 0,0 l/m 1,5 km/h (1 Bft) N 360 5 min 0,000 mm 0,0 UV-I 126 W/m 4,9 C 5,2 C 3,2 km/h (1 Bft) 98,82 %
25.10.2015 08:45 5,4 C 98 % 1023,7 hPa 0,0 l/m 0,0 km/h (0 Bft) N-NO 24 10 min 0,000 mm 0,2 UV-I 119 W/m 5,1 C 5,4 C 0,0 km/h (0 Bft) 100,00 %
25.10.2015 08:50 5,5 C 97 % 1023,8 hPa 0,0 l/m 0,0 km/h (0 Bft) N-NO 24 5 min 0,000 mm 0,5 UV-I 122 W/m 5,1 C 5,5 C 1,6 km/h (1 Bft) 100,00 %
25.10.2015 08:55 5,5 C 97 % 1023,8 hPa 0,0 l/m 0,2 km/h (0 Bft) N-NO 24 5 min 0,000 mm 0,5 UV-I 147 W/m 5,1 C 5,5 C 1,6 km/h (1 Bft) 100,00 %
25.10.2015 09:00 5,6 C 97 % 1023,9 hPa 0,0 l/m 0,6 km/h (0 Bft) N-NO 24 5 min 0,051 mm 0,6 UV-I 173 W/m 5,2 C 5,6 C 1,6 km/h (1 Bft) 98,37 %
25.10.2015 09:05 5,7 C 97 % 1024,0 hPa 0,0 l/m 0,7 km/h (0 Bft) N-NO 24 5 min 0,000 mm 0,6 UV-I 194 W/m 5,3 C 5,7 C 3,2 km/h (1 Bft) 99,11 %
25.10.2015 09:10 6,0 C 97 % 1024,0 hPa 0,0 l/m 1,0 km/h (0 Bft) SW 218 5 min 0,000 mm 0,7 UV-I 209 W/m 5,6 C 6,0 C 4,8 km/h (1 Bft) 98,31 %
25.10.2015 09:15 6,2 C 97 % 1024,0 hPa 0,0 l/m 3,0 km/h (1 Bft) SW 228 5 min 0,000 mm 0,7 UV-I 220 W/m 5,8 C 6,2 C 4,8 km/h (1 Bft) 100,00 %
25.10.2015 09:20 6,6 C 97 % 1024,1 hPa 0,0 l/m 2,4 km/h (1 Bft) S-SW 205 5 min 0,000 mm 0,8 UV-I 231 W/m 6,2 C 6,6 C 4,8 km/h (1 Bft) 95,50 %
25.10.2015 09:25 6,9 C 97 % 1024,1 hPa 0,0 l/m 2,4 km/h (1 Bft) W-SW 238 5 min 0,000 mm 0,9 UV-I 304 W/m 6,5 C 6,9 C 4,8 km/h (1 Bft) 99,19 %
25.10.2015 09:30 7,2 C 95 % 1024,1 hPa 0,0 l/m 2,2 km/h (1 Bft) SW 225 5 min 0,000 mm 1,0 UV-I 362 W/m 6,5 C 7,2 C 6,4 km/h (2 Bft) 99,12 %
25.10.2015 09:35 7,6 C 94 % 1024,2 hPa 0,0 l/m 2,5 km/h (1 Bft) SW 216 5 min 0,000 mm 1,1 UV-I 406 W/m 6,7 C 7,6 C 4,8 km/h (1 Bft) 100,00 %
25.10.2015 09:40 7,9 C 94 % 1024,2 hPa 0,0 l/m 1,7 km/h (1 Bft) W 265 5 min 0,000 mm 1,1 UV-I 443 W/m 7,0 C 7,9 C 3,2 km/h (1 Bft) 99,19 %
25.10.2015 09:45 8,4 C 93 % 1024,3 hPa 0,0 l/m 1,4 km/h (1 Bft) N-NW 342 5 min 0,000 mm 1,2 UV-I 472 W/m 7,3 C 8,4 C 4,8 km/h (1 Bft) 99,17 %
25.10.2015 09:50 8,6 C 93 % 1024,2 hPa 0,0 l/m 1,4 km/h (1 Bft) N 5 5 min 0,000 mm 1,1 UV-I 305 W/m 7,5 C 8,6 C 3,2 km/h (1 Bft) 98,17 %
25.10.2015 09:55 8,4 C 93 % 1024,4 hPa 0,0 l/m 0,8 km/h (0 Bft) N-NW 342 0 min 0,000 mm 0,9 UV-I 152 W/m 7,3 C 8,4 C 3,2 km/h (1 Bft) 99,19 %
25.10.2015 10:00 8,4 C 93 % 1024,4 hPa 0,0 l/m 0,5 km/h (0 Bft) N-NW 344 0 min 0,127 mm 0,9 UV-I 124 W/m 7,3 C 8,4 C 1,6 km/h (1 Bft) 100,00 %
25.10.2015 10:05 8,4 C 93 % 1024,4 hPa 0,0 l/m 0,7 km/h (0 Bft) N-NW 346 0 min 0,000 mm 1,0 UV-I 136 W/m 7,3 C 8,4 C 3,2 km/h (1 Bft) 99,15 %
25.10.2015 10:10 8,6 C 94 % 1024,4 hPa 0,0 l/m 0,8 km/h (0 Bft) W-SW 248 5 min 0,000 mm 1,2 UV-I 310 W/m 7,7 C 8,6 C 4,8 km/h (1 Bft) 99,15 %
25.10.2015 10:15 8,9 C 93 % 1024,4 hPa 0,0 l/m 3,1 km/h (1 Bft) SW 224 5 min 0,000 mm 1,3 UV-I 346 W/m 7,8 C 8,9 C 6,4 km/h (2 Bft) 99,15 %
25.10.2015 10:20 9,1 C 92 % 1024,3 hPa 0,0 l/m 3,7 km/h (1 Bft) SW 234 5 min 0,000 mm 1,4 UV-I 343 W/m 7,9 C 9,1 C 6,4 km/h (2 Bft) 98,15 %
25.10.2015 10:25 9,5 C 92 % 1024,4 hPa 0,0 l/m 2,3 km/h (1 Bft) W-SW 246 5 min 0,000 mm 1,5 UV-I 488 W/m 8,3 C 9,5 C 4,8 km/h (1 Bft) 99,20 %
25.10.2015 10:30 9,8 C 91 % 1024,4 hPa 0,0 l/m 3,2 km/h (1 Bft) SW 219 5 min 0,000 mm 1,6 UV-I 519 W/m 8,4 C 9,8 C 6,4 km/h (2 Bft) 99,08 %
25.10.2015 10:35 10,3 C 89 % 1024,4 hPa 0,0 l/m 1,7 km/h (1 Bft) W-SW 248 5 min 0,000 mm 1,7 UV-I 548 W/m 8,6 C 10,3 C 3,2 km/h (1 Bft) 99,17 %
25.10.2015 10:40 10,5 C 89 % 1024,5 hPa 0,0 l/m 3,9 km/h (1 Bft) SW 214 5 min 0,000 mm 1,7 UV-I 545 W/m 8,8 C 10,5 C 6,4 km/h (2 Bft) 100,00 %
25.10.2015 10:45 10,6 C 87 % 1024,5 hPa 0,0 l/m 2,5 km/h (1 Bft) S-SW 200 5 min 0,000 mm 1,6 UV-I 324 W/m 8,5 C 10,6 C 8,0 km/h (2 Bft) 99,15 %
25.10.2015 10:50 11,1 C 84 % 1024,6 hPa 0,0 l/m 1,7 km/h (1 Bft) S 184 5 min 0,000 mm 1,8 UV-I 481 W/m 8,5 C 11,1 C 4,8 km/h (1 Bft) 98,15 %
25.10.2015 10:55 11,1 C 84 % 1024,6 hPa 0,0 l/m 3,0 km/h (1 Bft) S-SW 207 5 min 0,000 mm 1,8 UV-I 540 W/m 8,5 C 11,1 C 6,4 km/h (2 Bft) 100,00 %
25.10.2015 11:00 11,5 C 85 % 1024,6 hPa 0,0 l/m 3,1 km/h (1 Bft) S-SW 211 5 min 0,203 mm 1,8 UV-I 503 W/m 9,1 C 11,5 C 6,4 km/h (2 Bft) 100,00 %
25.10.2015 11:05 11,9 C 81 % 1024,4 hPa 0,0 l/m 2,6 km/h (1 Bft) S-SW 192 5 min 0,000 mm 1,9 UV-I 529 W/m 8,7 C 11,9 C 6,4 km/h (2 Bft) 97,44 %
25.10.2015 11:10 11,8 C 83 % 1024,5 hPa 0,0 l/m 2,0 km/h (1 Bft) W-NW 285 5 min 0,000 mm 1,7 UV-I 405 W/m 9,0 C 11,8 C 4,8 km/h (1 Bft) 100,00 %
25.10.2015 11:15 12,0 C 84 % 1024,5 hPa 0,0 l/m 2,2 km/h (1 Bft) S-SW 194 5 min 0,000 mm 1,7 UV-I 289 W/m 9,4 C 12,0 C 4,8 km/h (1 Bft) 96,61 %
25.10.2015 11:20 12,4 C 80 % 1024,5 hPa 0,0 l/m 2,2 km/h (1 Bft) SW 227 5 min 0,000 mm 2,0 UV-I 557 W/m 9,0 C 12,4 C 4,8 km/h (1 Bft) 98,29 %
25.10.2015 11:25 12,7 C 79 % 1024,5 hPa 0,0 l/m 1,4 km/h (1 Bft) W 261 5 min 0,000 mm 1,9 UV-I 437 W/m 9,2 C 12,7 C 3,2 km/h (1 Bft) 98,32 %
25.10.2015 11:30 13,2 C 79 % 1024,5 hPa 0,0 l/m 2,1 km/h (1 Bft) W-NW 288 5 min 0,000 mm 2,1 UV-I 518 W/m 9,6 C 13,2 C 4,8 km/h (1 Bft) 100,00 %
25.10.2015 11:35 13,6 C 77 % 1024,4 hPa 0,0 l/m 2,5 km/h (1 Bft) W-SW 250 5 min 0,000 mm 2,1 UV-I 525 W/m 9,6 C 13,6 C 6,4 km/h (2 Bft) 99,15 %
25.10.2015 11:40 13,8 C 75 % 1024,3 hPa 0,0 l/m 3,1 km/h (1 Bft) W-NW 294 5 min 0,000 mm 2,0 UV-I 509 W/m 9,4 C 13,8 C 4,8 km/h (1 Bft) 97,46 %
25.10.2015 11:45 13,7 C 74 % 1024,3 hPa 0,0 l/m 4,2 km/h (1 Bft) W-NW 295 5 min 0,000 mm 1,9 UV-I 490 W/m 9,2 C 13,7 C 11,3 km/h (2 Bft) 100,00 %
25.10.2015 11:50 13,4 C 76 % 1024,3 hPa 0,0 l/m 4,4 km/h (1 Bft) W 268 5 min 0,000 mm 1,6 UV-I 378 W/m 9,3 C 13,4 C 9,7 km/h (2 Bft) 99,06 %
25.10.2015 11:55 13,4 C 76 % 1024,3 hPa 0,0 l/m 4,0 km/h (1 Bft) W 266 5 min 0,000 mm 1,5 UV-I 299 W/m 9,3 C 13,4 C 12,9 km/h (3 Bft) 99,15 %
25.10.2015 12:00 13,3 C 76 % 1024,2 hPa 0,0 l/m 3,3 km/h (1 Bft) NW 305 5 min 0,229 mm 1,5 UV-I 274 W/m 9,2 C 13,3 C 11,3 km/h (2 Bft) 98,37 %
25.10.2015 12:05 13,4 C 77 % 1024,1 hPa 0,0 l/m 1,7 km/h (1 Bft) W 281 5 min 0,000 mm 1,7 UV-I 382 W/m 9,5 C 13,4 C 4,8 km/h (1 Bft) 98,35 %
25.10.2015 12:10 13,5 C 78 % 1024,1 hPa 0,0 l/m 1,0 km/h (0 Bft) N-NW 348 5 min 0,000 mm 1,7 UV-I 403 W/m 9,7 C 13,5 C 3,2 km/h (1 Bft) 99,10 %
25.10.2015 12:15 13,7 C 77 % 1023,9 hPa 0,0 l/m 2,1 km/h (1 Bft) W-SW 255 5 min 0,000 mm 1,8 UV-I 422 W/m 9,7 C 13,7 C 6,4 km/h (2 Bft) 100,00 %
25.10.2015 12:20 13,7 C 78 % 1023,9 hPa 0,0 l/m 1,1 km/h (1 Bft) N 350 5 min 0,000 mm 1,8 UV-I 428 W/m 9,9 C 13,7 C 4,8 km/h (1 Bft) 99,08 %
25.10.2015 12:25 14,1 C 78 % 1023,8 hPa 0,0 l/m 1,1 km/h (1 Bft) NW 324 5 min 0,000 mm 1,9 UV-I 468 W/m 10,3 C 14,1 C 3,2 km/h (1 Bft) 99,15 %
25.10.2015 12:30 14,2 C 76 % 1023,8 hPa 0,0 l/m 1,7 km/h (1 Bft) N 355 5 min 0,000 mm 1,9 UV-I 492 W/m 10,0 C 14,2 C 6,4 km/h (2 Bft) 98,35 %
25.10.2015 12:35 14,3 C 76 % 1023,8 hPa 0,0 l/m 1,6 km/h (1 Bft) N-NW 329 5 min 0,000 mm 1,9 UV-I 526 W/m 10,1 C 14,3 C 4,8 km/h (1 Bft) 98,35 %
25.10.2015 12:40 14,6 C 75 % 1023,7 hPa 0,0 l/m 1,8 km/h (1 Bft) W-NW 290 5 min 0,000 mm 1,9 UV-I 532 W/m 10,2 C 14,6 C 4,8 km/h (1 Bft) 98,33 %
25.10.2015 12:45 14,6 C 76 % 1023,7 hPa 0,0 l/m 3,0 km/h (1 Bft) W 273 5 min 0,000 mm 1,8 UV-I 439 W/m 10,4 C 14,6 C 4,8 km/h (1 Bft) 98,11 %
25.10.2015 12:50 14,6 C 75 % 1023,7 hPa 0,0 l/m 3,4 km/h (1 Bft) W 273 5 min 0,000 mm 1,7 UV-I 396 W/m 10,2 C 14,6 C 8,0 km/h (2 Bft) 100,00 %
25.10.2015 12:55 14,7 C 76 % 1023,7 hPa 0,0 l/m 1,8 km/h (1 Bft) NW 323 5 min 0,000 mm 1,6 UV-I 380 W/m 10,5 C 14,7 C 4,8 km/h (1 Bft) 98,31 %
25.10.2015 13:00 14,7 C 75 % 1023,7 hPa 0,0 l/m 2,4 km/h (1 Bft) W 262 5 min 0,229 mm 1,6 UV-I 447 W/m 10,3 C 14,7 C 9,7 km/h (2 Bft) 99,15 %
25.10.2015 13:05 14,9 C 75 % 1023,7 hPa 0,0 l/m 3,1 km/h (1 Bft) W-NW 294 5 min 0,000 mm 1,6 UV-I 438 W/m 10,5 C 14,9 C 6,4 km/h (2 Bft) 99,17 %
25.10.2015 13:10 15,2 C 72 % 1023,8 hPa 0,0 l/m 4,1 km/h (1 Bft) W-NW 290 5 min 0,000 mm 1,5 UV-I 385 W/m 10,2 C 15,2 C 9,7 km/h (2 Bft) 99,15 %
25.10.2015 13:15 15,0 C 72 % 1023,7 hPa 0,0 l/m 2,3 km/h (1 Bft) W-SW 256 0 min 0,000 mm 1,2 UV-I 270 W/m 10,0 C 15,0 C 4,8 km/h (1 Bft) 99,15 %
25.10.2015 13:20 14,8 C 73 % 1023,7 hPa 0,0 l/m 1,0 km/h (0 Bft) N 5 0 min 0,000 mm 1,0 UV-I 189 W/m 10,0 C 14,8 C 3,2 km/h (1 Bft) 96,61 %
25.10.2015 13:25 14,8 C 76 % 1023,7 hPa 0,0 l/m 1,4 km/h (1 Bft) N 11 0 min 0,000 mm 0,9 UV-I 178 W/m 10,6 C 14,8 C 3,2 km/h (1 Bft) 100,00 %
25.10.2015 13:30 14,8 C 74 % 1023,7 hPa 0,0 l/m 1,2 km/h (1 Bft) N-NW 344 0 min 0,000 mm 0,8 UV-I 161 W/m 10,2 C 14,8 C 3,2 km/h (1 Bft) 98,15 %
25.10.2015 13:35 14,7 C 75 % 1023,6 hPa 0,0 l/m 1,9 km/h (1 Bft) N 11 0 min 0,000 mm 0,8 UV-I 155 W/m 10,3 C 14,7 C 4,8 km/h (1 Bft) 98,57 %
25.10.2015 13:45 14,7 C 75 % 1023,7 hPa 0,0 l/m 1,2 km/h (1 Bft) N-NW 342 0 min 0,000 mm 0,7 UV-I 151 W/m 10,3 C 14,7 C 3,2 km/h (1 Bft) 99,61 %
25.10.2015 13:55 14,7 C 76 % 1023,7 hPa 0,0 l/m 1,5 km/h (1 Bft) NW 311 0 min 0,000 mm 0,6 UV-I 129 W/m 10,5 C 14,7 C 4,8 km/h (1 Bft) 100,00 %
25.10.2015 14:00 14,7 C 77 % 1023,7 hPa 0,0 l/m 1,1 km/h (1 Bft) W-NW 298 0 min 0,101 mm 0,6 UV-I 123 W/m 10,7 C 14,7 C 3,2 km/h (1 Bft) 100,00 %
25.10.2015 14:05 14,7 C 75 % 1023,7 hPa 0,0 l/m 2,7 km/h (1 Bft) W 269 0 min 0,000 mm 0,5 UV-I 111 W/m 10,3 C 14,7 C 4,8 km/h (1 Bft) 98,31 %
25.10.2015 14:10 14,7 C 73 % 1023,8 hPa 0,0 l/m 5,3 km/h (1 Bft) W 264 0 min 0,000 mm 0,5 UV-I 102 W/m 9,9 C 14,7 C 12,9 km/h (3 Bft) 100,00 %
25.10.2015 14:15 14,6 C 75 % 1023,9 hPa 0,0 l/m 3,9 km/h (1 Bft) W 275 0 min 0,000 mm 0,5 UV-I 106 W/m 10,2 C 14,6 C 6,4 km/h (2 Bft) 98,21 %
25.10.2015 14:20 14,4 C 75 % 1023,8 hPa 0,0 l/m 2,5 km/h (1 Bft) W 279 0 min 0,000 mm 0,3 UV-I 105 W/m 10,0 C 14,4 C 6,4 km/h (2 Bft) 99,13 %
25.10.2015 14:25 14,4 C 76 % 1024,0 hPa 0,0 l/m 2,4 km/h (1 Bft) W 281 0 min 0,000 mm 0,0 UV-I 96 W/m 10,2 C 14,4 C 4,8 km/h (1 Bft) 99,00 %
25.10.2015 14:30 14,3 C 76 % 1024,0 hPa 0,0 l/m 3,4 km/h (1 Bft) W 271 0 min 0,000 mm 0,0 UV-I 90 W/m 10,1 C 14,3 C 9,7 km/h (2 Bft) 100,00 %
25.10.2015 14:35 14,2 C 79 % 1024,0 hPa 0,0 l/m 2,0 km/h (1 Bft) N 350 0 min 0,000 mm 0,0 UV-I 95 W/m 10,6 C 14,2 C 6,4 km/h (2 Bft) 97,39 %
25.10.2015 14:40 14,1 C 80 % 1024,1 hPa 0,0 l/m 2,0 km/h (1 Bft) W-NW 292 0 min 0,000 mm 0,0 UV-I 99 W/m 10,7 C 14,1 C 3,2 km/h (1 Bft) 99,21 %
25.10.2015 14:45 14,1 C 78 % 1024,0 hPa 0,0 l/m 2,7 km/h (1 Bft) W-NW 294 0 min 0,000 mm 0,0 UV-I 92 W/m 10,3 C 14,1 C 6,4 km/h (2 Bft) 99,11 %
25.10.2015 14:50 13,9 C 79 % 1024,1 hPa 0,0 l/m 2,0 km/h (1 Bft) W 266 0 min 0,000 mm 0,0 UV-I 74 W/m 10,3 C 13,9 C 11,3 km/h (2 Bft) 100,00 %
25.10.2015 14:55 13,8 C 80 % 1024,1 hPa 0,0 l/m 2,0 km/h (1 Bft) N 9 0 min 0,000 mm 0,0 UV-I 67 W/m 10,4 C 13,8 C 8,0 km/h (2 Bft) 99,19 %
25.10.2015 15:00 13,7 C 83 % 1024,3 hPa 0,0 l/m 1,3 km/h (1 Bft) N-NW 345 0 min 0,051 mm 0,0 UV-I 65 W/m 10,9 C 13,7 C 4,8 km/h (1 Bft) 100,00 %
25.10.2015 15:05 13,5 C 83 % 1024,3 hPa 0,0 l/m 0,8 km/h (0 Bft) W 259 0 min 0,000 mm 0,0 UV-I 60 W/m 10,7 C 13,5 C 3,2 km/h (1 Bft) 99,21 %
25.10.2015 15:10 13,3 C 84 % 1024,4 hPa 0,0 l/m 0,7 km/h (0 Bft) NW 322 0 min 0,000 mm 0,0 UV-I 48 W/m 10,7 C 13,3 C 8,0 km/h (2 Bft) 99,08 %
25.10.2015 15:15 13,3 C 83 % 1024,4 hPa 0,0 l/m 1,3 km/h (1 Bft) W-NW 290 0 min 0,000 mm 0,0 UV-I 48 W/m 10,5 C 13,3 C 4,8 km/h (1 Bft) 99,19 %
25.10.2015 15:20 13,3 C 84 % 1024,4 hPa 0,0 l/m 1,3 km/h (1 Bft) NW 325 0 min 0,000 mm 0,0 UV-I 45 W/m 10,7 C 13,3 C 4,8 km/h (1 Bft) 100,00 %
25.10.2015 15:25 13,3 C 83 % 1024,5 hPa 0,0 l/m 1,8 km/h (1 Bft) W 270 0 min 0,000 mm 0,0 UV-I 40 W/m 10,5 C 13,3 C 6,4 km/h (2 Bft) 100,00 %
25.10.2015 15:30 13,3 C 83 % 1024,5 hPa 0,0 l/m 2,1 km/h (1 Bft) W-NW 283 0 min 0,000 mm 0,0 UV-I 42 W/m 10,5 C 13,3 C 4,8 km/h (1 Bft) 99,15 %
25.10.2015 15:35 13,2 C 83 % 1024,5 hPa 0,0 l/m 2,0 km/h (1 Bft) W 264 0 min 0,000 mm 0,0 UV-I 42 W/m 10,4 C 13,2 C 4,8 km/h (1 Bft) 100,00 %
25.10.2015 15:40 13,1 C 84 % 1024,5 hPa 0,0 l/m 0,3 km/h (0 Bft) W 264 0 min 0,000 mm 0,0 UV-I 44 W/m 10,5 C 13,1 C 1,6 km/h (1 Bft) 99,15 %
25.10.2015 15:45 13,0 C 84 % 1024,5 hPa 0,0 l/m 0,6 km/h (0 Bft) W 263 0 min 0,000 mm 0,0 UV-I 52 W/m 10,4 C 13,0 C 3,2 km/h (1 Bft) 100,00 %
25.10.2015 15:50 12,9 C 85 % 1024,4 hPa 0,0 l/m 1,7 km/h (1 Bft) W-NW 293 0 min 0,000 mm 0,0 UV-I 56 W/m 10,4 C 12,9 C 4,8 km/h (1 Bft) 100,00 %
25.10.2015 15:55 12,9 C 85 % 1024,3 hPa 0,0 l/m 1,3 km/h (1 Bft) N-NW 343 0 min 0,000 mm 0,0 UV-I 57 W/m 10,4 C 12,9 C 4,8 km/h (1 Bft) 99,12 %
25.10.2015 16:00 12,9 C 84 % 1024,5 hPa 0,0 l/m 2,5 km/h (1 Bft) W-NW 292 0 min 0,025 mm 0,0 UV-I 53 W/m 10,3 C 12,9 C 6,4 km/h (2 Bft) 100,00 %
25.10.2015 16:05 12,8 C 85 % 1024,5 hPa 0,0 l/m 0,8 km/h (0 Bft) NW 317 0 min 0,000 mm 0,0 UV-I 42 W/m 10,3 C 12,8 C 6,4 km/h (2 Bft) 99,11 %
25.10.2015 16:10 12,8 C 84 % 1024,5 hPa 0,0 l/m 1,8 km/h (1 Bft) W 274 0 min 0,000 mm 0,0 UV-I 38 W/m 10,2 C 12,8 C 4,8 km/h (1 Bft) 99,00 %
25.10.2015 16:15 12,7 C 85 % 1024,6 hPa 0,0 l/m 0,7 km/h (0 Bft) W 270 0 min 0,000 mm 0,0 UV-I 37 W/m 10,2 C 12,7 C 3,2 km/h (1 Bft) 99,28 %
25.10.2015 16:20 12,7 C 85 % 1024,6 hPa 0,0 l/m 0,5 km/h (0 Bft) W 279 0 min 0,000 mm 0,0 UV-I 33 W/m 10,2 C 12,7 C 3,2 km/h (1 Bft) 100,00 %
25.10.2015 16:25 12,7 C 85 % 1024,7 hPa 0,0 l/m 1,7 km/h (1 Bft) SW 236 0 min 0,000 mm 0,0 UV-I 28 W/m 10,2 C 12,7 C 3,2 km/h (1 Bft) 99,17 %
25.10.2015 16:30 12,6 C 86 % 1024,6 hPa 0,0 l/m 0,7 km/h (0 Bft) S 184 0 min 0,000 mm 0,0 UV-I 21 W/m 10,3 C 12,6 C 3,2 km/h (1 Bft) 100,00 %
25.10.2015 16:35 12,6 C 86 % 1024,7 hPa 0,0 l/m 0,3 km/h (0 Bft) S 184 0 min 0,000 mm 0,0 UV-I 15 W/m 10,3 C 12,6 C 1,6 km/h (1 Bft) 98,31 %
25.10.2015 16:40 12,5 C 86 % 1024,7 hPa 0,0 l/m 0,1 km/h (0 Bft) S 184 0 min 0,000 mm 0,0 UV-I 11 W/m 10,2 C 12,5 C 1,6 km/h (1 Bft) 99,21 %
25.10.2015 16:45 12,4 C 87 % 1024,7 hPa 0,0 l/m 0,9 km/h (0 Bft) S-SW 194 0 min 0,000 mm 0,0 UV-I 11 W/m 10,3 C 12,4 C 3,2 km/h (1 Bft) 99,08 %
25.10.2015 16:50 12,3 C 87 % 1024,7 hPa 0,0 l/m 1,0 km/h (0 Bft) W-SW 244 0 min 0,000 mm 0,0 UV-I 11 W/m 10,2 C 12,3 C 3,2 km/h (1 Bft) 99,19 %
25.10.2015 16:55 12,2 C 88 % 1024,7 hPa 0,0 l/m 0,7 km/h (0 Bft) W-SW 244 0 min 0,000 mm 0,0 UV-I 9 W/m 10,3 C 12,2 C 1,6 km/h (1 Bft) 97,22 %
25.10.2015 17:00 12,1 C 87 % 1024,7 hPa 0,0 l/m 0,1 km/h (0 Bft) W-SW 244 0 min 0,026 mm 0,0 UV-I 7 W/m 10,0 C 12,1 C 1,6 km/h (1 Bft) 99,15 %
25.10.2015 17:05 12,1 C 87 % 1024,7 hPa 0,0 l/m 0,4 km/h (0 Bft) W-SW 244 0 min 0,000 mm 0,0 UV-I 6 W/m 10,0 C 12,1 C 1,6 km/h (1 Bft) 99,15 %
25.10.2015 17:10 12,1 C 87 % 1024,7 hPa 0,0 l/m 0,5 km/h (0 Bft) W-SW 241 0 min 0,000 mm 0,0 UV-I 1 W/m 10,0 C 12,1 C 4,8 km/h (1 Bft) 100,00 %
25.10.2015 17:15 11,9 C 87 % 1024,8 hPa 0,0 l/m 0,0 km/h (0 Bft) W-SW 241 0 min 0,000 mm 0,0 UV-I 0 W/m 9,8 C 11,9 C 1,6 km/h (1 Bft) 100,00 %
25.10.2015 17:20 11,8 C 88 % 1024,7 hPa 0,0 l/m 0,3 km/h (0 Bft) W 260 0 min 0,000 mm 0,0 UV-I 0 W/m 9,9 C 11,8 C 3,2 km/h (1 Bft) 98,33 %
25.10.2015 17:25 11,6 C 89 % 1024,7 hPa 0,0 l/m 0,5 km/h (0 Bft) W 260 0 min 0,000 mm 0,0 UV-I 0 W/m 9,8 C 11,6 C 1,6 km/h (1 Bft) 98,31 %
25.10.2015 17:30 11,3 C 89 % 1024,8 hPa 0,0 l/m 0,0 km/h (0 Bft) W 260 0 min 0,000 mm 0,0 UV-I 0 W/m 9,6 C 11,3 C 1,6 km/h (1 Bft) 100,00 %
25.10.2015 17:35 11,2 C 90 % 1024,9 hPa 0,0 l/m 0,0 km/h (0 Bft) W 260 0 min 0,000 mm 0,0 UV-I 0 W/m 9,6 C 11,2 C 1,6 km/h (1 Bft) 100,00 %
25.10.2015 17:40 10,9 C 91 % 1024,9 hPa 0,0 l/m 0,0 km/h (0 Bft) W 260 0 min 0,000 mm 0,0 UV-I 0 W/m 9,5 C 10,9 C 0,0 km/h (0 Bft) 100,00 %
25.10.2015 17:45 10,8 C 91 % 1025,0 hPa 0,0 l/m 0,0 km/h (0 Bft) W 260 0 min 0,000 mm 0,0 UV-I 0 W/m 9,4 C 10,8 C 1,6 km/h (1 Bft) 99,15 %
25.10.2015 17:50 10,8 C 92 % 1025,0 hPa 0,0 l/m 0,6 km/h (0 Bft) W 260 0 min 0,000 mm 0,0 UV-I 0 W/m 9,6 C 10,8 C 3,2 km/h (1 Bft) 99,17 %
25.10.2015 17:55 10,5 C 92 % 1025,1 hPa 0,0 l/m 0,7 km/h (0 Bft) W 260 0 min 0,000 mm 0,0 UV-I 0 W/m 9,3 C 10,5 C 1,6 km/h (1 Bft) 100,00 %
25.10.2015 18:00 10,5 C 92 % 1025,1 hPa 0,0 l/m 1,0 km/h (0 Bft) W 260 0 min 0,000 mm 0,0 UV-I 0 W/m 9,3 C 10,5 C 1,6 km/h (1 Bft) 100,00 %
25.10.2015 18:10 9,9 C 94 % 1025,2 hPa 0,0 l/m 0,3 km/h (0 Bft) W 260 0 min 0,000 mm 0,0 UV-I 0 W/m 9,0 C 9,9 C 1,6 km/h (1 Bft) 100,00 %
25.10.2015 18:15 10,0 C 93 % 1025,3 hPa 0,0 l/m 0,0 km/h (0 Bft) W 260 0 min 0,000 mm 0,0 UV-I 0 W/m 8,9 C 10,0 C 0,0 km/h (0 Bft) 100,00 %
25.10.2015 18:20 10,2 C 93 % 1025,4 hPa 0,0 l/m 0,2 km/h (0 Bft) W 260 0 min 0,000 mm 0,0 UV-I 0 W/m 9,1 C 10,2 C 1,6 km/h (1 Bft) 99,19 %
25.10.2015 18:25 10,2 C 93 % 1025,5 hPa 0,0 l/m 0,4 km/h (0 Bft) W 260 0 min 0,000 mm 0,0 UV-I 0 W/m 9,1 C 10,2 C 3,2 km/h (1 Bft) 99,17 %
25.10.2015 18:30 10,2 C 93 % 1025,6 hPa 0,0 l/m 0,1 km/h (0 Bft) W 260 0 min 0,000 mm 0,0 UV-I 0 W/m 9,1 C 10,2 C 1,6 km/h (1 Bft) 100,00 %
25.10.2015 18:35 10,3 C 93 % 1025,7 hPa 0,0 l/m 0,1 km/h (0 Bft) W 260 0 min 0,000 mm 0,0 UV-I 0 W/m 9,2 C 10,3 C 1,6 km/h (1 Bft) 100,00 %
25.10.2015 18:40 10,3 C 93 % 1025,7 hPa 0,0 l/m 0,4 km/h (0 Bft) W-SW 239 0 min 0,000 mm 0,0 UV-I 0 W/m 9,2 C 10,3 C 3,2 km/h (1 Bft) 98,33 %
25.10.2015 18:45 10,2 C 93 % 1025,7 hPa 0,0 l/m 0,6 km/h (0 Bft) SW 233 0 min 0,000 mm 0,0 UV-I 0 W/m 9,1 C 10,2 C 1,6 km/h (1 Bft) 98,21 %
25.10.2015 18:50 10,3 C 93 % 1025,7 hPa 0,0 l/m 1,0 km/h (0 Bft) W-SW 255 0 min 0,000 mm 0,0 UV-I 0 W/m 9,2 C 10,3 C 3,2 km/h (1 Bft) 99,11 %
25.10.2015 18:55 10,3 C 93 % 1025,7 hPa 0,0 l/m 0,1 km/h (0 Bft) W-SW 255 0 min 0,000 mm 0,0 UV-I 0 W/m 9,2 C 10,3 C 1,6 km/h (1 Bft) 100,00 %
25.10.2015 19:00 10,3 C 93 % 1025,7 hPa 0,0 l/m 0,0 km/h (0 Bft) W-SW 255 0 min 0,000 mm 0,0 UV-I 0 W/m 9,2 C 10,3 C 0,0 km/h (0 Bft) 100,00 %
25.10.2015 19:05 10,3 C 93 % 1025,8 hPa 0,0 l/m 0,0 km/h (0 Bft) W-SW 255 0 min 0,000 mm 0,0 UV-I 0 W/m 9,2 C 10,3 C 1,6 km/h (1 Bft) 99,26 %
25.10.2015 19:10 10,2 C 92 % 1025,8 hPa 0,0 l/m 0,0 km/h (0 Bft) W-SW 255 0 min 0,000 mm 0,0 UV-I 0 W/m 9,0 C 10,2 C 1,6 km/h (1 Bft) 99,06 %
25.10.2015 19:15 9,9 C 93 % 1025,9 hPa 0,0 l/m 1,9 km/h (1 Bft) SO 129 0 min 0,000 mm 0,0 UV-I 0 W/m 8,8 C 9,9 C 3,2 km/h (1 Bft) 98,39 %
25.10.2015 19:20 9,8 C 93 % 1026,0 hPa 0,0 l/m 2,1 km/h (1 Bft) SO 128 0 min 0,000 mm 0,0 UV-I 0 W/m 8,7 C 9,8 C 3,2 km/h (1 Bft) 99,11 %
25.10.2015 19:25 9,6 C 93 % 1026,1 hPa 0,0 l/m 0,3 km/h (0 Bft) SO 128 0 min 0,000 mm 0,0 UV-I 0 W/m 8,5 C 9,6 C 1,6 km/h (1 Bft) 97,62 %
25.10.2015 19:30 9,5 C 95 % 1026,2 hPa 0,0 l/m 0,4 km/h (0 Bft) S-SO 154 0 min 0,000 mm 0,0 UV-I 0 W/m 8,7 C 9,5 C 3,2 km/h (1 Bft) 100,00 %
25.10.2015 19:35 9,7 C 94 % 1026,2 hPa 0,0 l/m 1,2 km/h (1 Bft) S 171 0 min 0,000 mm 0,0 UV-I 0 W/m 8,8 C 9,7 C 3,2 km/h (1 Bft) 100,00 %
25.10.2015 19:40 9,5 C 94 % 1026,3 hPa 0,0 l/m 0,7 km/h (0 Bft) S 179 0 min 0,000 mm 0,0 UV-I 0 W/m 8,6 C 9,5 C 1,6 km/h (1 Bft) 98,21 %
25.10.2015 19:45 9,3 C 95 % 1026,3 hPa 0,0 l/m 0,4 km/h (0 Bft) S 179 0 min 0,000 mm 0,0 UV-I 0 W/m 8,5 C 9,3 C 1,6 km/h (1 Bft) 100,00 %
25.10.2015 19:50 9,5 C 95 % 1026,3 hPa 0,0 l/m 0,0 km/h (0 Bft) S 179 0 min 0,000 mm 0,0 UV-I 0 W/m 8,7 C 9,5 C 0,0 km/h (0 Bft) 100,00 %
25.10.2015 19:55 9,4 C 95 % 1026,4 hPa 0,0 l/m 0,2 km/h (0 Bft) S 179 0 min 0,000 mm 0,0 UV-I 0 W/m 8,6 C 9,4 C 1,6 km/h (1 Bft) 99,18 %
25.10.2015 20:00 9,5 C 95 % 1026,4 hPa 0,0 l/m 0,3 km/h (0 Bft) S 179 0 min 0,000 mm 0,0 UV-I 0 W/m 8,7 C 9,5 C 1,6 km/h (1 Bft) 98,26 %
25.10.2015 20:05 9,7 C 95 % 1026,3 hPa 0,0 l/m 1,5 km/h (1 Bft) S 184 0 min 0,000 mm 0,0 UV-I 0 W/m 8,9 C 9,7 C 4,8 km/h (1 Bft) 99,19 %
25.10.2015 20:10 9,8 C 95 % 1026,3 hPa 0,0 l/m 2,1 km/h (1 Bft) S 182 0 min 0,000 mm 0,0 UV-I 0 W/m 9,0 C 9,8 C 4,8 km/h (1 Bft) 98,26 %
25.10.2015 20:15 10,0 C 94 % 1026,3 hPa 0,0 l/m 2,1 km/h (1 Bft) S 183 0 min 0,000 mm 0,0 UV-I 0 W/m 9,1 C 10,0 C 4,8 km/h (1 Bft) 100,00 %
25.10.2015 20:20 10,1 C 94 % 1026,2 hPa 0,0 l/m 2,0 km/h (1 Bft) S 176 0 min 0,000 mm 0,0 UV-I 0 W/m 9,2 C 10,1 C 3,2 km/h (1 Bft) 100,00 %
25.10.2015 20:25 10,1 C 94 % 1026,1 hPa 0,0 l/m 2,1 km/h (1 Bft) S 175 0 min 0,000 mm 0,0 UV-I 0 W/m 9,2 C 10,1 C 3,2 km/h (1 Bft) 98,21 %
25.10.2015 20:30 10,2 C 94 % 1026,2 hPa 0,0 l/m 1,9 km/h (1 Bft) S 183 0 min 0,000 mm 0,0 UV-I 0 W/m 9,3 C 10,2 C 4,8 km/h (1 Bft) 96,75 %
25.10.2015 20:35 10,2 C 94 % 1026,1 hPa 0,0 l/m 2,3 km/h (1 Bft) S 183 0 min 0,000 mm 0,0 UV-I 0 W/m 9,3 C 10,2 C 3,2 km/h (1 Bft) 100,00 %
25.10.2015 20:40 10,2 C 94 % 1026,1 hPa 0,0 l/m 1,6 km/h (1 Bft) S 188 0 min 0,000 mm 0,0 UV-I 0 W/m 9,3 C 10,2 C 3,2 km/h (1 Bft) 99,19 %
25.10.2015 20:45 10,2 C 94 % 1026,1 hPa 0,0 l/m 0,4 km/h (0 Bft) S 188 0 min 0,000 mm 0,0 UV-I 0 W/m 9,3 C 10,2 C 3,2 km/h (1 Bft) 99,08 %
25.10.2015 20:50 10,3 C 94 % 1026,1 hPa 0,0 l/m 0,4 km/h (0 Bft) S 188 0 min 0,000 mm 0,0 UV-I 0 W/m 9,4 C 10,3 C 1,6 km/h (1 Bft) 100,00 %
25.10.2015 20:55 10,3 C 94 % 1026,1 hPa 0,0 l/m 1,9 km/h (1 Bft) S-SW 193 0 min 0,000 mm 0,0 UV-I 0 W/m 9,4 C 10,3 C 3,2 km/h (1 Bft) 100,00 %
25.10.2015 21:00 10,3 C 94 % 1026,0 hPa 0,0 l/m 1,8 km/h (1 Bft) S-SW 193 0 min 0,000 mm 0,0 UV-I 0 W/m 9,4 C 10,3 C 4,8 km/h (1 Bft) 100,00 %
25.10.2015 21:05 10,3 C 94 % 1026,0 hPa 0,0 l/m 1,4 km/h (1 Bft) S-SW 202 0 min 0,000 mm 0,0 UV-I 0 W/m 9,4 C 10,3 C 3,2 km/h (1 Bft) 100,00 %
25.10.2015 21:10 10,2 C 94 % 1026,0 hPa 0,0 l/m 0,9 km/h (0 Bft) SW 234 0 min 0,000 mm 0,0 UV-I 0 W/m 9,3 C 10,2 C 3,2 km/h (1 Bft) 97,52 %
25.10.2015 21:15 10,2 C 94 % 1025,9 hPa 0,0 l/m 0,7 km/h (0 Bft) S-SW 213 0 min 0,000 mm 0,0 UV-I 0 W/m 9,3 C 10,2 C 3,2 km/h (1 Bft) 99,17 %
25.10.2015 21:20 10,3 C 94 % 1025,8 hPa 0,0 l/m 0,2 km/h (0 Bft) S-SW 213 0 min 0,000 mm 0,0 UV-I 0 W/m 9,4 C 10,3 C 3,2 km/h (1 Bft) 100,00 %
25.10.2015 21:25 10,3 C 94 % 1025,8 hPa 0,0 l/m 1,1 km/h (1 Bft) S-SW 212 0 min 0,000 mm 0,0 UV-I 0 W/m 9,4 C 10,3 C 3,2 km/h (1 Bft) 99,11 %
25.10.2015 21:30 10,3 C 94 % 1025,9 hPa 0,0 l/m 0,6 km/h (0 Bft) S-SW 212 0 min 0,000 mm 0,0 UV-I 0 W/m 9,4 C 10,3 C 1,6 km/h (1 Bft) 100,00 %
25.10.2015 21:35 10,3 C 94 % 1025,9 hPa 0,0 l/m 0,9 km/h (0 Bft) S-SW 212 0 min 0,000 mm 0,0 UV-I 0 W/m 9,4 C 10,3 C 3,2 km/h (1 Bft) 98,43 %
25.10.2015 21:40 10,4 C 94 % 1026,0 hPa 0,0 l/m 0,2 km/h (0 Bft) S-SW 212 0 min 0,000 mm 0,0 UV-I 0 W/m 9,5 C 10,4 C 1,6 km/h (1 Bft) 98,33 %
25.10.2015 21:45 10,4 C 94 % 1026,0 hPa 0,0 l/m 0,4 km/h (0 Bft) S-SW 211 0 min 0,000 mm 0,0 UV-I 0 W/m 9,5 C 10,4 C 1,6 km/h (1 Bft) 100,00 %
25.10.2015 21:50 10,5 C 94 % 1026,0 hPa 0,0 l/m 0,0 km/h (0 Bft) S-SW 211 0 min 0,000 mm 0,0 UV-I 0 W/m 9,6 C 10,5 C 1,6 km/h (1 Bft) 98,35 %
25.10.2015 21:55 10,5 C 93 % 1026,0 hPa 0,0 l/m 0,0 km/h (0 Bft) S-SW 211 0 min 0,000 mm 0,0 UV-I 0 W/m 9,4 C 10,5 C 0,0 km/h (0 Bft) 100,00 %
25.10.2015 22:00 10,6 C 93 % 1025,9 hPa 0,0 l/m 0,0 km/h (0 Bft) S-SW 211 0 min 0,000 mm 0,0 UV-I 0 W/m 9,5 C 10,6 C 0,0 km/h (0 Bft) 99,15 %
25.10.2015 22:05 10,6 C 93 % 1026,0 hPa 0,0 l/m 0,0 km/h (0 Bft) S-SW 211 0 min 0,000 mm 0,0 UV-I 0 W/m 9,5 C 10,6 C 0,0 km/h (0 Bft) 100,00 %
25.10.2015 22:10 10,7 C 93 % 1026,0 hPa 0,0 l/m 0,0 km/h (0 Bft) S-SW 211 0 min 0,000 mm 0,0 UV-I 0 W/m 9,6 C 10,7 C 0,0 km/h (0 Bft) 99,07 %
25.10.2015 22:15 10,7 C 93 % 1025,9 hPa 0,0 l/m 0,0 km/h (0 Bft) S-SW 211 0 min 0,000 mm 0,0 UV-I 0 W/m 9,6 C 10,7 C 0,0 km/h (0 Bft) 100,00 %
25.10.2015 22:20 10,7 C 93 % 1025,9 hPa 0,0 l/m 0,0 km/h (0 Bft) S-SW 211 0 min 0,000 mm 0,0 UV-I 0 W/m 9,6 C 10,7 C 0,0 km/h (0 Bft) 99,06 %
25.10.2015 22:25 10,6 C 93 % 1025,9 hPa 0,0 l/m 0,0 km/h (0 Bft) S-SW 211 0 min 0,000 mm 0,0 UV-I 0 W/m 9,5 C 10,6 C 0,0 km/h (0 Bft) 100,00 %
25.10.2015 22:30 10,5 C 93 % 1025,9 hPa 0,0 l/m 0,7 km/h (0 Bft) N 5 0 min 0,000 mm 0,0 UV-I 0 W/m 9,4 C 10,5 C 3,2 km/h (1 Bft) 100,00 %
25.10.2015 22:35 10,3 C 94 % 1025,9 hPa 0,0 l/m 0,2 km/h (0 Bft) N 5 0 min 0,000 mm 0,0 UV-I 0 W/m 9,4 C 10,3 C 3,2 km/h (1 Bft) 99,10 %
25.10.2015 22:40 10,3 C 94 % 1025,9 hPa 0,0 l/m 0,0 km/h (0 Bft) N 5 0 min 0,000 mm 0,0 UV-I 0 W/m 9,4 C 10,3 C 0,0 km/h (0 Bft) 99,19 %
25.10.2015 22:45 10,4 C 94 % 1025,8 hPa 0,0 l/m 0,0 km/h (0 Bft) N 5 0 min 0,000 mm 0,0 UV-I 0 W/m 9,5 C 10,4 C 1,6 km/h (1 Bft) 98,31 %
25.10.2015 22:50 10,3 C 94 % 1025,7 hPa 0,0 l/m 0,0 km/h (0 Bft) N 5 0 min 0,000 mm 0,0 UV-I 0 W/m 9,4 C 10,3 C 1,6 km/h (1 Bft) 98,29 %
25.10.2015 22:55 10,2 C 94 % 1025,7 hPa 0,0 l/m 0,1 km/h (0 Bft) N 5 0 min 0,000 mm 0,0 UV-I 0 W/m 9,3 C 10,2 C 1,6 km/h (1 Bft) 100,00 %
25.10.2015 23:00 10,2 C 94 % 1025,7 hPa 0,0 l/m 0,1 km/h (0 Bft) N 5 0 min 0,000 mm 0,0 UV-I 0 W/m 9,3 C 10,2 C 1,6 km/h (1 Bft) 99,19 %
25.10.2015 23:05 10,1 C 95 % 1025,7 hPa 0,0 l/m 0,2 km/h (0 Bft) N 5 0 min 0,000 mm 0,0 UV-I 0 W/m 9,3 C 10,1 C 1,6 km/h (1 Bft) 100,00 %
25.10.2015 23:10 9,9 C 95 % 1025,6 hPa 0,0 l/m 0,2 km/h (0 Bft) N 5 0 min 0,000 mm 0,0 UV-I 0 W/m 9,1 C 9,9 C 1,6 km/h (1 Bft) 100,00 %
25.10.2015 23:15 9,9 C 95 % 1025,5 hPa 0,0 l/m 0,0 km/h (0 Bft) N 5 0 min 0,000 mm 0,0 UV-I 0 W/m 9,1 C 9,9 C 1,6 km/h (1 Bft) 100,00 %
25.10.2015 23:20 9,9 C 95 % 1025,5 hPa 0,0 l/m 0,6 km/h (0 Bft) O 92 0 min 0,000 mm 0,0 UV-I 0 W/m 9,1 C 9,9 C 3,2 km/h (1 Bft) 100,00 %
25.10.2015 23:25 9,9 C 95 % 1025,5 hPa 0,0 l/m 0,1 km/h (0 Bft) O 92 0 min 0,000 mm 0,0 UV-I 0 W/m 9,1 C 9,9 C 1,6 km/h (1 Bft) 99,21 %
25.10.2015 23:30 9,9 C 96 % 1025,4 hPa 0,0 l/m 0,0 km/h (0 Bft) O 92 0 min 0,000 mm 0,0 UV-I 0 W/m 9,3 C 9,9 C 1,6 km/h (1 Bft) 100,00 %
25.10.2015 23:35 10,0 C 95 % 1025,4 hPa 0,0 l/m 0,0 km/h (0 Bft) O 92 0 min 0,000 mm 0,0 UV-I 0 W/m 9,2 C 10,0 C 1,6 km/h (1 Bft) 100,00 %
25.10.2015 23:40 9,9 C 95 % 1025,3 hPa 0,0 l/m 0,0 km/h (0 Bft) O 92 0 min 0,000 mm 0,0 UV-I 0 W/m 9,1 C 9,9 C 1,6 km/h (1 Bft) 99,19 %
25.10.2015 23:45 10,0 C 95 % 1025,4 hPa 0,0 l/m 1,4 km/h (1 Bft) O 88 0 min 0,000 mm 0,0 UV-I 0 W/m 9,2 C 10,0 C 3,2 km/h (1 Bft) 99,08 %
25.10.2015 23:50 10,0 C 95 % 1025,3 hPa 0,0 l/m 1,0 km/h (0 Bft) O 92 0 min 0,000 mm 0,0 UV-I 0 W/m 9,2 C 10,0 C 3,2 km/h (1 Bft) 100,00 %
25.10.2015 23:55 9,9 C 95 % 1025,3 hPa 0,0 l/m 1,2 km/h (1 Bft) O 92 0 min 0,000 mm 0,0 UV-I 0 W/m 9,1 C 9,9 C 3,2 km/h (1 Bft) 99,12 %
_ Min-Zeit 06:20 13:10 00:00 - 00:05 - - - - - - 06:20 06:20 00:05 09:20
Minimum _ 2,2 C 72 % 1020,5 hPa - 0,0 km/h (0 Bft) - - - - - - 1,9 C 2,2 C 0,0 km/h (0 Bft) 95,50 %
_ Max-Zeit 13:10 07:55 19:55 00:00 14:10 - - 08:45 12:00 11:30 11:20 15:00 13:10 11:55 00:05
Maximum _ 15,2 C 99 % 1026,4 hPa 0,0 l/m 5,3 km/h
W (1 Bft)
- - 10 min 0,229 mm 2,1 UV-I 557 W/m 10,9 C 15,2 C 12,9 km/h
W-NW (3 Bft)
100,00 %
Durchschnitt _ 8,5 C 91 % 1023,8 hPa #0,0 l/m 1,0 km/h (0 Bft) W - #5:10 h #1,067 mm 1,3 UV-I 208 W/m 7,1 C 8,5 C 3,0 km/h (1 Bft) 99,28 %